2023-025E (55694 NORAD) Tracking and Keplerian Element Data

This shows tracking and keplerian element data for the satellite.

Feedback or suggestion? Click here.




ElementValue
Catalog55694
Name2023-025E
Epoch Orbit104
Epoch Day62.15483593
Epoch Year2023
RAAN135.5467
Inclination97.2767
Eccentricity0.0161175
Argument of Perigee143.6319
Mean Anonmoly275.2808
Mean Motion14.87132218
Decay Rate-5.8E-07
L11 55694U 23025E 23062.15483593 -.00000058 00000+0 00000+0 0 9994
L22 55694 97.2767 135.5467 0161175 143.6319 275.2808 14.87132218 1042



Live tracking and technical data element details for 2023-025E (NORAD 55694). 2023-025E can be tracked NOW for your location showing map with azimuth and elevation plus other details from your city location.







IsCatalogInMostPopularTable: catalog: 55694, numindb: 1
Update: records affected: 1



GetName: 55694 2023-025E

Hit Count: updated at: Wed, 22 Mar 2023 16:52:07 GMT